STARLINK-34248, 64928

Orbit data source: Space-Track

STARLINK-34248, 64928 is a payload satellite owned by SpaceX/Seattle (US) in LEO that was launched on Sat, 26 Jul 2025 UTC via an FALCON 9 launch vehicle from the Air Force Eastern Test Range (AFETR). Payload-class satellites include a variety of spacecraft equipped with specific instruments for various scientific and technological missions. These include communications satellites like Starlink; space stations such as the ISS; scientific satellites like the Hubble; Earth observation satellites from companies like Planet Labs, Umbra, and HawkEye 360; GPS; miniature CubeSats for education and research; and military/defense satellites.

Loading next visibility...
Identifier
64928, 2025-157AA
Orbit
LEO
Country
Flag of USUS
Related business
Manufacturer
SpaceX/Seattle
Mission
Operational Commercial Communications
Bus & Motor
STARLINK V2MO, Unknown motor
Mass
575 kg wet, ~530 kg dry
Launch date (UTC)
2025-07-26 (4 months ago)
Launch vehicle
FALCON 9
Launch site
Air Force Eastern Test Range (AFETR)
Object type
Payload
Rocket body
Debris
Shape & HBR
Box + 2 Pan, 17.7 m
Radar Cross Section
36.964 m², Large (>1 m²)

Expand to show TLE details & history
Last TLE update: 11 hours ago

TLE from 11 hours ago
0 STARLINK-34248
1 64928U 25157AA  25340.92297828  .00072407  00000-0  18012-2 0  9994
2 64928  53.1571  60.6184 0001396  77.4569 282.6592 15.39650068 21869
Epoch: 2025-12-06T22:09Z
TLE epoch observation values (Epoch: 2025-12-06T22:09:05.323Z)
Latitude
-0.00001°
Longitude
12.40245°
Altitude
447.838 km
Speed
7.645 km/s
True Right ascension
04h 02m 28s
True Declination
0° 00' 00"
Sunlit
Object was in full shadow at epoch
Visualization orbit readout
Latitude
Unknown
Longitude
Unknown
Altitude
Unknown
Speed
Unknown
Apparent Right ascension
Unknown
Apparent Declination
Unknown
Sunlit
N/A
Visualization observer readout
Local Sidereal Time
07:41:35
Azimuth
Unknown
Elevation
Unknown
Doppler factor
Unknown
Orbital elements
Apogee altitude
448.354 km
Perigee altitude
446.448 km
Semi-major axis
6,825.538 km
Eccentricity
0.00014
Inclination
53.1571°
RAAN
60.6184°
Arg. of periapsis
77.4569°
True anomaly
282.64359°
Mean anomaly
282.6592°
Eccentric anomaly
282.6514°
Mean motion
3.84891 °/min
Orbital period
93.53 mins
BSTAR
0.0018012
Loading maneuver chart data...
Computing Atmospheric mass density...
Loading historical data...
Loading historical data...
Loading historical data...
Loading historical data...
Loading historical data...
Loading historical data...
Loading historical data...

Documentation

Showing up to 5 results
|